• In Hungary
  • List of Countries
  • For 7 days
  • Water Temperature
  • Satellite Maps
  • Weather Map
  • News
  • Weather Widgets
  • user-avatar
    Login

    Hourly Weather Ataevka

    Today, 24 October, Wednesday

    Time Temperature Precipitation Wind Pressure Humidity
    00:00 +5°C° 0 mm 3 mps 740 mmHg 88%
    01:00 +5°C° 0 mm 3 mps 740 mmHg 87%
    02:00 +5°C° 0 mm 3 mps 739 mmHg 86%
    03:00 +4°C° 0 mm 3 mps 739 mmHg 86%
    04:00 +4°C° 0 mm 4 mps 739 mmHg 85%
    05:00 +4°C° 0 mm 4 mps 738 mmHg 85%
    06:00 +4°C° 0 mm 4 mps 738 mmHg 85%
    07:00 +5°C° 0 mm 5 mps 738 mmHg 79%
    08:00 +6°C° 0 mm 5 mps 737 mmHg 73%
    09:00 +7°C° 0 mm 6 mps 737 mmHg 67%
    10:00 +9°C° 0 mm 7 mps 737 mmHg 63%
    11:00 +10°C° 0 mm 7 mps 736 mmHg 58%
    12:00 +11°C° 0 mm 8 mps 736 mmHg 54%
    13:00 +12°C° 0 mm 7 mps 735 mmHg 54%
    14:00 +12°C° 0 mm 7 mps 735 mmHg 54%
    15:00 +12°C° 0 mm 7 mps 734 mmHg 54%
    16:00 +12°C° 0 mm 7 mps 733 mmHg 59%
    17:00 +11°C° 0 mm 7 mps 733 mmHg 64%
    18:00 +11°C° 0 mm 6 mps 732 mmHg 69%
    19:00 +11°C° 0.5 mm 7 mps 732 mmHg 74%
    20:00 +11°C° 0.5 mm 8 mps 732 mmHg 78%
    21:00 +11°C° 0.5 mm 8 mps 732 mmHg 83%
    22:00 +11°C° 0.5 mm 8 mps 731 mmHg 84%
    23:00 +11°C° 0.5 mm 7 mps 731 mmHg 85%

    Tomorrow, 25 October, Thursday

    Time Temperature Precipitation Wind Pressure Humidity
    00:00 +11°C° 0.5 mm 6 mps 730 mmHg 86%
    01:00 +11°C° 0.3 mm 6 mps 730 mmHg 87%
    02:00 +11°C° 0.3 mm 6 mps 729 mmHg 88%
    03:00 +11°C° 0.3 mm 6 mps 729 mmHg 89%
    04:00 +11°C° 0.3 mm 6 mps 728 mmHg 90%
    05:00 +11°C° 0.3 mm 6 mps 728 mmHg 90%
    06:00 +11°C° 0.3 mm 6 mps 728 mmHg 90%
    07:00 +11°C° 0.2 mm 6 mps 728 mmHg 88%
    08:00 +11°C° 0.2 mm 7 mps 727 mmHg 86%
    09:00 +12°C° 0.2 mm 7 mps 727 mmHg 84%
    10:00 +12°C° 0.1 mm 7 mps 727 mmHg 81%
    11:00 +12°C° 0.1 mm 8 mps 727 mmHg 79%
    12:00 +12°C° 0.1 mm 8 mps 727 mmHg 76%
    13:00 +11°C° 0.2 mm 8 mps 728 mmHg 77%
    14:00 +11°C° 0.2 mm 7 mps 728 mmHg 78%
    15:00 +10°C° 0.2 mm 7 mps 728 mmHg 79%
    16:00 +9°C° 0.1 mm 6 mps 729 mmHg 76%
    17:00 +8°C° 0.1 mm 6 mps 729 mmHg 74%
    18:00 +7°C° 0.1 mm 5 mps 730 mmHg 71%
    19:00 +7°C° 0 mm 5 mps 730 mmHg 70%
    20:00 +7°C° 0 mm 6 mps 731 mmHg 68%
    21:00 +7°C° 0 mm 6 mps 731 mmHg 67%
    22:00 +5°C° 0 mm 6 mps 731 mmHg 69%
    23:00 +4°C° 0 mm 6 mps 731 mmHg 71%

    Day after tomorrow, 26 October, Friday

    Time Temperature Precipitation Wind Pressure Humidity
    00:00 +4°C° 0 mm 6 mps 732 mmHg 72%
    01:00 +3°C° 0 mm 6 mps 732 mmHg 75%
    02:00 +3°C° 0 mm 6 mps 733 mmHg 78%
    03:00 +2°C° 0 mm 6 mps 733 mmHg 81%
    04:00 +2°C° 0 mm 6 mps 733 mmHg 83%
    05:00 +2°C° 0 mm 5 mps 734 mmHg 85%
    06:00 +1°C° 0 mm 5 mps 734 mmHg 87%
    07:00 +2°C° 0 mm 5 mps 735 mmHg 82%
    08:00 +2°C° 0 mm 6 mps 736 mmHg 77%
    09:00 +3°C° 0 mm 6 mps 736 mmHg 72%
    10:00 +4°C° 0 mm 6 mps 737 mmHg 65%
    11:00 +5°C° 0 mm 6 mps 737 mmHg 58%
    12:00 +5°C° 0 mm 6 mps 737 mmHg 51%
    13:00 +5°C° 0 mm 6 mps 737 mmHg 51%
    14:00 +5°C° 0 mm 6 mps 738 mmHg 51%
    15:00 +7°C° 0 mm 5 mps 738 mmHg 51%
    16:00 +6°C° 0 mm 4 mps 738 mmHg 56%
    17:00 +5°C° 0 mm 3 mps 739 mmHg 61%
    18:00 +5°C° 0 mm 2 mps 739 mmHg 67%
    19:00 +4°C° 0 mm 2 mps 739 mmHg 69%
    20:00 +4°C° 0 mm 2 mps 739 mmHg 71%
    21:00 +3°C° 0 mm 2 mps 740 mmHg 73%
    22:00 +3°C° 0 mm 2 mps 740 mmHg 74%
    23:00 +3°C° 0 mm 2 mps 740 mmHg 76%

    27 October, Saturday

    Time Temperature Precipitation Wind Pressure Humidity
    00:00 +2°C° 0 mm 2 mps 741 mmHg 77%
    01:00 +2°C° 0 mm 2 mps 741 mmHg 78%
    02:00 +1°C° 0 mm 3 mps 741 mmHg 78%
    03:00 +1°C° 0 mm 3 mps 742 mmHg 79%
    04:00 +1°C° 0 mm 3 mps 742 mmHg 80%
    05:00 0°C° 0 mm 3 mps 743 mmHg 81%
    06:00 0°C° 0 mm 3 mps 743 mmHg 82%
    07:00 0°C° 0 mm 4 mps 743 mmHg 79%
    08:00 +1°C° 0 mm 5 mps 744 mmHg 76%
    09:00 +2°C° 0 mm 6 mps 744 mmHg 74%
    10:00 +3°C° 0 mm 6 mps 745 mmHg 70%
    11:00 +4°C° 0 mm 6 mps 745 mmHg 66%
    12:00 +7°C° 0 mm 6 mps 745 mmHg 62%
    13:00 +7°C° 0 mm 6 mps 745 mmHg 60%
    14:00 +7°C° 0 mm 6 mps 745 mmHg 58%
    15:00 +7°C° 0 mm 6 mps 745 mmHg 56%
    16:00 +7°C° 0 mm 6 mps 744 mmHg 60%
    17:00 +6°C° 0 mm 5 mps 744 mmHg 63%
    18:00 +5°C° 0 mm 5 mps 744 mmHg 66%
    19:00 +5°C° 0 mm 6 mps 744 mmHg 66%
    20:00 +5°C° 0 mm 7 mps 743 mmHg 65%
    21:00 +6°C° 0 mm 8 mps 742 mmHg 64%
    22:00 +7°C° 0.2 mm 8 mps 742 mmHg 70%
    23:00 +7°C° 0.2 mm 9 mps 742 mmHg 77%

    28 October, Sunday

    Time Temperature Precipitation Wind Pressure Humidity
    00:00 +8°C° 0.2 mm 10 mps 741 mmHg 83%
    01:00 +8°C° 0.9 mm 10 mps 741 mmHg 83%
    02:00 +8°C° 0.9 mm 9 mps 741 mmHg 83%
    03:00 +10°C° 0.9 mm 9 mps 741 mmHg 84%
    04:00 +8°C° 0.1 mm 9 mps 742 mmHg 81%
    05:00 +7°C° 0.1 mm 8 mps 742 mmHg 78%
    06:00 +6°C° 0.1 mm 7 mps 743 mmHg 75%
    07:00 +6°C° 0 mm 8 mps 744 mmHg 71%
    08:00 +5°C° 0 mm 8 mps 745 mmHg 66%
    09:00 +5°C° 0 mm 9 mps 746 mmHg 62%
    10:00 +6°C° 0 mm 9 mps 746 mmHg 56%
    11:00 +6°C° 0 mm 9 mps 747 mmHg 50%
    12:00 +7°C° 0 mm 9 mps 748 mmHg 44%
    13:00 +7°C° 0 mm 8 mps 748 mmHg 42%
    14:00 +8°C° 0 mm 7 mps 749 mmHg 41%
    15:00 +8°C° 0 mm 7 mps 749 mmHg 39%
    16:00 +7°C° 0 mm 6 mps 750 mmHg 44%
    17:00 +6°C° 0 mm 4 mps 751 mmHg 49%
    18:00 +4°C° 0 mm 3 mps 751 mmHg 53%
    19:00 +4°C° 0 mm 3 mps 752 mmHg 56%
    20:00 +4°C° 0 mm 2 mps 752 mmHg 58%
    21:00 +4°C° 0 mm 2 mps 753 mmHg 60%
    22:00 +4°C° 0 mm 2 mps 753 mmHg 61%
    23:00 +4°C° 0 mm 2 mps 754 mmHg 62%

    29 October, Monday

    Time Temperature Precipitation Wind Pressure Humidity
    00:00 +4°C° 0 mm 2 mps 754 mmHg 62%
    01:00 +5°C° 0 mm 1 mps 754 mmHg 63%
    02:00 +5°C° 0 mm 1 mps 755 mmHg 63%
    03:00 +5°C° 0 mm 1 mps 755 mmHg 64%
    04:00 +5°C° 0 mm 1 mps 755 mmHg 64%
    05:00 +5°C° 0 mm 1 mps 755 mmHg 64%
    06:00 +5°C° 0 mm 1 mps 755 mmHg 65%
    07:00 +5°C° 0 mm 1 mps 755 mmHg 64%
    08:00 +5°C° 0 mm 1 mps 755 mmHg 64%
    09:00 +5°C° 0 mm 2 mps 755 mmHg 64%
    10:00 +5°C° 0.2 mm 2 mps 755 mmHg 66%
    11:00 +3°C° 0.2 mm 3 mps 755 mmHg 69%
    12:00 +3°C° 0.2 mm 3 mps 755 mmHg 72%
    13:00 +3°C° 0.1 mm 4 mps 755 mmHg 73%
    14:00 +3°C° 0.1 mm 4 mps 754 mmHg 75%
    15:00 +2°C° 0.1 mm 5 mps 754 mmHg 76%
    16:00 +2°C° 0.1 mm 5 mps 754 mmHg 77%
    17:00 +2°C° 0.1 mm 5 mps 753 mmHg 78%
    18:00 +2°C° 0.1 mm 5 mps 753 mmHg 79%
    19:00 +3°C° 0 mm 5 mps 753 mmHg 79%
    20:00 +3°C° 0 mm 5 mps 752 mmHg 79%
    21:00 +3°C° 0 mm 5 mps 752 mmHg 79%
    22:00 +3°C° 0 mm 5 mps 751 mmHg 81%
    23:00 +4°C° 0 mm 4 mps 751 mmHg 83%

    30 October, Tuesday

    Time Temperature Precipitation Wind Pressure Humidity
    00:00 +5°C° 0 mm 4 mps 751 mmHg 85%
    01:00 +5°C° 0 mm 4 mps 750 mmHg 84%
    02:00 +6°C° 0 mm 4 mps 750 mmHg 83%
    03:00 +7°C° 0 mm 4 mps 749 mmHg 82%
    04:00 +7°C° 0 mm 4 mps 749 mmHg 79%
    05:00 +7°C° 0 mm 4 mps 748 mmHg 76%
    06:00 +8°C° 0 mm 4 mps 748 mmHg 73%
    07:00 +8°C° 0 mm 5 mps 747 mmHg 69%
    08:00 +9°C° 0 mm 6 mps 747 mmHg 65%
    09:00 +10°C° 0 mm 6 mps 747 mmHg 61%
    10:00 +11°C° 0 mm 6 mps 747 mmHg 59%
    11:00 +13°C° 0 mm 6 mps 746 mmHg 56%
    12:00 +14°C° 0 mm 6 mps 746 mmHg 54%
    13:00 +14°C° 0 mm 5 mps 746 mmHg 53%
    14:00 +15°C° 0 mm 5 mps 746 mmHg 52%
    15:00 +17°C° 0 mm 4 mps 745 mmHg 51%
    16:00 +14°C° 0 mm 4 mps 745 mmHg 56%
    17:00 +13°C° 0 mm 4 mps 745 mmHg 61%
    18:00 +12°C° 0 mm 3 mps 745 mmHg 66%
    19:00 +11°C° 0 mm 3 mps 745 mmHg 71%
    20:00 +11°C° 0 mm 3 mps 746 mmHg 75%
    21:00 +10°C° 0 mm 3 mps 746 mmHg 79%
    22:00 +10°C° 0 mm 3 mps 746 mmHg 83%
    23:00 +9°C° 0 mm 3 mps 746 mmHg 87%
    Show more